| time (UTC) | temp F | wind direction | speed knots | gust knots | rain 1hr in | rain 24hr in | rain mn in | humidity % | barometer mb |
| 20260507144525 | 50 | 259 | 7.8 | 15.6 | 0.00 | 0.08 | 0.08 | 79 | 1015.9 |
| 20260507143015 | 49 | 262 | 6.1 | 13.0 | 0.00 | 0.08 | 0.08 | 80 | 1016.1 |
| 20260507141513 | 48 | 259 | 7.8 | 13.9 | 0.00 | 0.08 | 0.08 | 81 | 1016.2 |
| 20260507140012 | 46 | 264 | 7.8 | 14.8 | 0.00 | 0.08 | 0.08 | 84 | 1016.4 |
| 20260507134512 | 45 | 247 | 5.2 | 12.2 | 0.00 | 0.08 | 0.08 | 84 | 1016.4 |
| 20260507133010 | 44 | 255 | 4.3 | 7.8 | 0.00 | 0.08 | 0.08 | 85 | 1016.7 |
| 20260507131509 | 43 | 240 | 1.7 | 7.0 | 0.00 | 0.08 | 0.08 | 85 | 1016.6 |
| 20260507130008 | 42 | 257 | 3.5 | 7.8 | 0.00 | 0.08 | 0.08 | 85 | 1016.7 |
| 20260507124510 | 41 | 280 | 5.2 | 7.8 | 0.00 | 0.08 | 0.08 | 85 | 1016.7 |
| 20260507123009 | 40 | 265 | 1.7 | 6.1 | 0.00 | 0.08 | 0.08 | 85 | 1016.5 |
| 20260507121506 | 39 | 252 | 3.5 | 5.2 | 0.00 | 0.08 | 0.08 | 84 | 1016.4 |
| 20260507120006 | 39 | 268 | 4.3 | 7.8 | 0.00 | 0.08 | 0.08 | 84 | 1016.5 |
| 20260507114503 | 40 | 256 | 3.5 | 7.0 | 0.00 | 0.08 | 0.08 | 84 | 1016.5 |
| 20260507113101 | 40 | 265 | 3.5 | 5.2 | 0.00 | 0.08 | 0.08 | 84 | 1016.4 |
| 20260507111602 | 40 | 287 | 3.5 | 7.0 | 0.00 | 0.08 | 0.08 | 84 | 1016.4 |
| 20260507110057 | 40 | 272 | 2.6 | 5.2 | 0.00 | 0.08 | 0.08 | 84 | 1016.4 |
| 20260507104553 | 41 | 257 | 2.6 | 5.2 | 0.00 | 0.08 | 0.08 | 84 | 1016.5 |
| 20260507103050 | 41 | 289 | 2.6 | 6.1 | 0.00 | 0.08 | 0.08 | 84 | 1016.5 |
| 20260507101549 | 42 | 290 | 2.6 | 4.3 | 0.00 | 0.08 | 0.08 | 84 | 1016.6 |
| 20260507100047 | 42 | 281 | 1.7 | 4.3 | 0.00 | 0.08 | 0.08 | 84 | 1016.6 |
| 20260507094544 | 43 | 281 | 2.6 | 5.2 | 0.00 | 0.08 | 0.08 | 84 | 1016.7 |
| 20260507093047 | 43 | 282 | 2.6 | 4.3 | 0.00 | 0.08 | 0.08 | 84 | 1016.7 |
| 20260507091545 | 43 | 275 | 2.6 | 4.3 | 0.00 | 0.08 | 0.08 | 83 | 1016.7 |
| 20260507090040 | 44 | 294 | 1.7 | 3.5 | 0.00 | 0.08 | 0.08 | 83 | 1016.5 |
| 20260507084536 | 44 | 278 | 2.6 | 4.3 | 0.00 | 0.08 | 0.08 | 83 | 1016.9 |
| 20260507083034 | 44 | 288 | 1.7 | 5.2 | 0.00 | 0.08 | 0.08 | 83 | 1016.9 |
| 20260507081533 | 44 | 274 | 2.6 | 3.5 | 0.00 | 0.08 | 0.08 | 83 | 1017.0 |
| 20260507080032 | 44 | 311 | 1.7 | 5.2 | 0.00 | 0.08 | 0.08 | 83 | 1017.1 |
| 20260507074531 | 45 | 282 | 1.7 | 5.2 | 0.00 | 0.08 | 0.08 | 83 | 1017.6 |
| 20260507073031 | 45 | 281 | 2.6 | 4.3 | 0.00 | 0.08 | 0.08 | 82 | 1017.6 |
| 20260507071529 | 44 | 278 | 1.7 | 4.3 | 0.01 | 0.08 | 0.08 | 82 | 1017.4 |
| 20260507070032 | 45 | 273 | 2.6 | 5.2 | 0.03 | 0.08 | 0.08 | 81 | 1017.5 |
| 20260507064525 | 45 | 298 | 1.7 | 5.2 | 0.04 | 0.08 | 0.08 | 81 | 1017.5 |
| 20260507063022 | 45 | 286 | 2.6 | 5.2 | 0.05 | 0.08 | 0.08 | 80 | 1017.6 |
| 20260507061520 | 46 | 306 | 0.9 | 2.6 | 0.05 | 0.07 | 0.07 | 79 | 1017.4 |
| 20260507060022 | 46 | 309 | 1.7 | 2.6 | 0.05 | 0.05 | 0.05 | 79 | 1017.9 |
| 20260507054519 | 46 | 312 | 1.7 | 2.6 | 0.04 | 0.04 | 0.04 | 79 | 1017.9 |
| 20260507053013 | 47 | 339 | 0.9 | 1.7 | 0.03 | 0.03 | 0.03 | 78 | 1017.5 |
| 20260507051511 | 47 | 284 | 1.7 | 4.3 | 0.02 | 0.02 | 0.02 | 75 | 1017.8 |
| 20260507050006 | 49 | 313 | 1.7 | 4.3 | 0.00 | 0.00 | 0.00 | 68 | 1017.7 |
| 20260507044505 | 50 | 314 | 0.9 | 3.5 | 0.00 | 0.00 | 0.00 | 62 | 1017.2 |
| 20260507043009 | 51 | 298 | 0.9 | 2.6 | 0.00 | 0.00 | 0.00 | 60 | 1017.3 |
| 20260507041503 | 51 | 34 | 0.0 | 4.3 | 0.00 | 0.00 | 0.00 | 60 | 1016.9 |
| 20260507040003 | 51 | 355 | 1.7 | 7.0 | 0.00 | 0.00 | 0.00 | 60 | 1017.3 |
| 20260507034503 | 51 | 42 | 1.7 | 7.0 | 0.00 | 0.00 | 0.00 | 60 | 1017.4 |
| 20260507033001 | 51 | 334 | 0.9 | 7.8 | 0.00 | 0.00 | 0.00 | 59 | 1017.4 |
| 20260507031600 | 51 | 5 | 2.6 | 7.8 | 0.00 | 0.00 | 0.00 | 59 | 1017.3 |
| 20260507030057 | 51 | 355 | 4.3 | 7.8 | 0.00 | 0.00 | 0.00 | 58 | 1016.8 |
| 20260507024605 | 51 | 284 | 1.7 | 8.7 | 0.00 | 0.00 | 0.00 | 58 | 1016.3 |
| 20260507023052 | 50 | 30 | 3.5 | 8.7 | 0.00 | 0.00 | 0.00 | 58 | 1016.1 |
| 20260507021549 | 50 | 345 | 3.5 | 7.0 | 0.00 | 0.00 | 0.00 | 57 | 1015.5 |
| 20260507020106 | 51 | 5 | 4.3 | 7.8 | 0.00 | 0.00 | 0.00 | 57 | 1015.4 |
| 20260507014552 | 51 | 317 | 2.6 | 7.8 | 0.00 | 0.00 | 0.00 | 55 | 1015.1 |
| 20260507013052 | 52 | 325 | 1.7 | 7.8 | 0.00 | 0.00 | 0.00 | 54 | 1014.6 |
| 20260507011545 | 53 | 5 | 0.9 | 7.0 | 0.00 | 0.00 | 0.00 | 53 | 1014.0 |
| 20260507010045 | 54 | 9 | 0.9 | 4.3 | 0.00 | 0.00 | 0.00 | 51 | 1013.6 |